SCP
0 0 0 0 0 0 0 0 0 0 0 0 0 0 0 0 0 0 0 0 0 0 0 0 0 0 0 0 0 0 0 0 0 0 0 0 0 0 0 0 0 0 0 0
0 0 0 0 0 0 0 0 0 0 0 0 0 0 0 0 0 0 0 0 0 0 1 0 0 0 0 0 0 0 0 0 0 0 0 0 0 0 0 0 0 0 0 0
0 0 0 0 0 0 0 0 0 0 0 0 0 0 0 0 0 0 0 0 0 0 0 0 0 0 0 0 0 0 0 0 0 0 0 0 0 0 0 0 0 0 0 0
0 0 0 0 0 0 0 0 0 0 0 0 0 0 0 0 0 0 0 0 0 0 0 0 0 0 0 0 0 0 0 0 0 0 0 0 0 0 0 0 0 0 0 0
0 0 0 0 0 0 0 0 0 0 0 0 0 0 0 0 0 0 0 0 0 0 0 0 0 0 0 0 0 0 0 0 0 0 0 0 0 0 0 0 0 0 0 0
0 0 0 0 0 0 0 0 0 0 0 0 0 0 0 0 0 0 0 0 0 0 0 0 0 0 0 0 0 0 0 0 0 0 0 0 0 0 0 0 0 0 0 0
0 0 0 0 0 0 0 0 0 0 0 0 0 0 0 0 0 0 0 0 0 0 0 0 0 0 0 0 0 0 0 0 0 0 0 0 0 0 0 0 0 0 0 0
0 0 0 0 0 0 0 0 0 0 0 0 0 0 0 0 0 0 0 0 0 0 0 0 0 0 0 0 0 0 0 0 0 0 0 0 0 0 0 0 0 0 0 0
0 0 0 0 0 0 0 0 0 0 0 0 0 0 0 0 0 0 0 0 0 0 0 0 0 0 0 0 0 0 0 0 0 0 0 0 0 0 0 0 0 0 0 0
0 0 0 0 0 0 0 0 0 0 0 0 0 0 0 0 0 0 0 0 0 0 0 0 0 0 0 0 0 0 0 0 0 0 0 0 0 0 0 0 0 0 0 0
0 0 0 0 0 0 0 0 0 0 0 0 0 0 0 0 0 0 0 0 0 0 0 0 0 0 0 0 0 0 0 0 0 0 0 0 0 0 0 0 0 0 0 0
0 0 0 0 0 0 0 0 0 0 0 0 0 0 0 0 0 0 0 0 0 0 0 0 0 0 0 0 0 0 0 0 0 0 0 0 0 0 0 0 0 0 0 0
0 0 0 0 0 0 0 0 0 0 0 0 0 0 0 0 0 0 0 0 0 0 0 0 0 0 0 0 0 0 0 0 0 0 0 0 0 0 0 0 -0 0 0 0
0 0 0 0 0 0 -0 -0 0 0 0 0 0 0 0 0 0 0 0 0 0 0 0 0 0 0 0 0 0 0 0 0 0 0 0 0 0 0 0 0 0 0 0 0
0 0 0 0 0 0 0 0 0 0 0 0 0 0 0 0 0 0 0 0 0 0 0 0 0 0 0 0 0 0 0 0 0 0 0 0 0 0 0 0 0 0 0 0
0 0 0 0 0 0 0 0 0 0 0 0 0 0 0 0 0 0 0 0 0 0 0 0 0 0 0 0 0 0 0 0 0 0 0 0 0 0 0 0 0 0 0 0
-0 -0 -0 0 0 0 0 0 0 0 0 0 0 0 0 0 0 0 0 0 0 0 0 0 0 0 0 0 0 0 0 0 0 0 0 0 0 0 0 0 0 0 0 0
-0 -0 0 0 0 0 0 0 0 0 0 0 0 0 0 0 0 0 -0 0 0 0 0 0 0 0 0 0 0 0 0 0 0 0 0 0 -0 -0 -0 0 0 0 0 0
0 -0 0 0 0 0 0 0 0 0 0 0 0 0 0 0 0 0 0 0 0 0 0 0 0 0 0 0 0 0 0 0 0 0 0 -0 -0 -0 0 0 0 0 0 0
-0 0 0 0 0 0 0 0 0 0 0 0 0 0 0 0 0 0 0 0 0 0 0 0 0 0 0 0 0 0 0 0 0 0 0 -0 0 0 0 0 0 0 0 0
-0 0 0 0 0 0 0 0 0 0 0 0 0 0 0 0 0 0 0 0 0 0 0 0 -0 -0 0 0 0 0 0 0 0 -0 0 0 0 0 0 0 0 0 0 0
0 -0 -0 0 0 0 0 0 0 0 0 0 0 0 0 0 0 0 0 0 0 0 0 -0 -0 0 0 0 0 0 0 0 0 -0 0 0 0 0 0 0 0 0 0 0
0 -0 -0 0 0 0 0 0 -0 0 0 -0 0 0 0 0 0 0 0 0 0 -0 -0 -0 0 0 0 0 0 0 0 0 0 0 0 0 0 0 0 0 0 0 0 0
0 -0 -0 0 0 0 0 -0 -0 -0 0 0 0 0 0 0 -0 -0 -0 -0 0 -0 0 0 0 0 0 0 0 0 0 0 0 0 0 0 0 0 0 0 0 0 0 0
0 -0 -0 -0 0 -0 -0 -0 0 0 0 0 0 -0 0 0 0 -0 0 0 0 0 0 0 0 0 0 0 0 -0 -0 0 0 0 0 0 0 0 0 0 0 0 0 0
0 -0 -0 0 -0 0 -0 -0 -0 0 -0 -0 -0 -0 -0 -0 0 -0 -0 0 0 0 0 0 0 0 0 -0 -0 0 0 0 0 0 0 0 0 0 0 0 0 0 0 -0
0 0 -0 -0 0 -0 0 -0 -0 -0 -0 -0 -0 -0 -0 -0 -0 -0 -0 0 0 0 0 0 0 -0 -0 -0 0 0 0 0 0 0 0 0 0 0 0 0 0 0 -0 -0
Wind_Speed_500mb
15 15 11 16 19 18 24 29 23 29 21 26 24 13 19 19 17 21 31 40 54 61 61 57 61 71 89 80 74 69 69 67 63 53 46 42 42 34 28 22 13 15 17 11
16 19 22 26 25 18 24 22 21 27 24 25 20 19 23 29 27 33 40 47 53 58 66 72 72 75 80 88 80 74 72 67 59 55 47 47 41 36 28 16 9 10 10 5
30 18 19 26 28 34 28 22 24 31 32 9 15 22 26 28 27 34 40 42 48 58 64 67 66 72 77 87 85 78 73 70 65 63 58 52 43 36 25 15 10 12 8 7
22 11 33 18 8 19 34 35 31 29 19 27 30 22 18 24 28 36 40 37 37 36 38 45 58 64 64 74 85 82 77 74 73 68 58 51 43 33 20 13 11 12 12 9
14 24 33 12 10 16 21 31 27 24 27 31 19 11 23 31 33 33 39 36 33 29 30 35 44 53 59 60 86 83 81 80 73 64 58 51 42 29 22 15 15 19 14 11
9 14 34 12 31 35 8 29 26 34 28 24 13 15 17 18 10 13 14 15 17 17 17 23 32 44 49 58 84 83 83 80 72 63 58 50 38 28 20 17 20 18 16 10
26 23 20 11 8 14 22 21 7 9 17 12 12 17 10 17 20 13 13 15 17 17 15 17 24 36 51 69 82 81 75 72 68 62 53 43 35 25 21 23 22 22 17 13
13 16 26 13 9 18 4 3 3 7 8 12 18 27 27 27 21 23 23 21 19 19 17 19 29 45 59 69 74 72 73 70 67 61 52 40 29 26 27 28 26 22 19 16
16 13 6 9 3 7 7 10 10 19 14 18 20 22 26 28 27 27 24 23 22 19 17 23 36 48 60 65 62 64 65 71 67 57 44 31 28 35 40 33 28 24 22 17
10 16 14 15 10 5 5 8 11 14 18 19 22 24 30 32 29 25 22 20 17 18 23 35 46 48 48 54 60 64 64 62 57 44 37 33 36 44 43 37 30 26 23 17
8 1 4 6 8 13 16 23 27 29 27 27 26 29 30 30 27 25 23 19 20 23 32 43 50 47 47 52 54 58 63 53 48 43 34 37 46 46 38 31 26 23 21 15
4 19 29 38 37 35 37 39 33 28 28 33 34 41 36 32 26 22 22 22 25 32 47 60 61 58 56 54 57 54 56 63 56 47 41 49 52 44 37 30 26 21 16 12
21 41 44 49 61 61 51 52 41 31 34 46 49 47 46 42 37 29 27 28 31 43 59 65 57 44 62 66 59 59 68 64 57 47 48 58 55 46 37 31 27 20 15 16
64 54 63 62 57 60 54 50 58 60 52 49 46 41 40 40 41 40 38 31 35 50 67 66 51 63 64 56 60 66 61 56 51 46 51 58 55 39 31 29 26 22 21 17
69 69 67 74 79 78 69 66 63 58 48 46 41 40 38 40 38 37 36 33 39 56 76 57 63 65 60 60 67 68 58 49 47 48 51 48 42 35 32 30 26 23 24 22
55 57 61 62 64 68 65 65 65 61 55 53 60 58 53 55 52 43 34 38 46 65 85 69 67 67 66 68 70 64 53 45 54 53 50 48 42 37 34 29 26 24 22 19
52 57 61 65 64 67 68 69 69 67 61 53 50 45 42 43 42 45 39 37 44 56 80 77 68 66 65 67 66 60 56 51 60 54 46 44 42 37 31 26 23 22 24 19
47 54 54 55 61 63 66 65 64 59 56 50 46 47 43 37 40 42 42 40 44 51 74 75 62 64 63 66 61 59 53 54 65 54 48 45 42 37 36 29 23 26 23 23
43 47 48 50 53 56 58 58 57 52 46 41 38 36 33 33 32 31 36 47 43 51 64 58 58 59 62 67 64 58 53 55 57 52 52 48 50 44 39 33 27 26 24 21
34 30 34 39 44 40 36 29 28 32 32 30 26 21 20 23 28 36 40 38 40 49 58 68 64 64 63 66 60 54 53 59 56 50 57 54 47 44 43 35 30 28 26 25
16 21 23 22 18 9 5 6 13 20 18 21 21 20 19 19 28 30 30 47 52 54 68 67 63 63 64 64 59 52 58 55 52 48 51 51 44 39 37 35 33 32 30 29
9 20 23 19 14 14 12 9 8 5 7 10 12 17 19 21 24 28 40 51 52 78 69 68 56 61 63 59 55 57 61 50 46 45 45 47 41 37 36 34 34 33 33 34
12 13 17 14 10 11 11 14 15 18 8 6 2 6 11 19 22 25 36 54 62 68 65 51 55 55 49 52 59 59 52 51 44 39 39 41 40 38 37 34 33 32 30 34
28 26 22 14 12 16 17 12 12 16 21 30 36 38 33 34 32 25 37 49 43 43 42 43 50 46 43 53 50 48 49 46 41 37 36 42 41 41 41 39 39 39 38 40
39 41 42 36 41 44 41 42 57 64 52 52 48 43 53 55 51 46 40 42 41 40 46 46 45 42 49 48 43 39 39 39 39 38 36 37 40 44 45 44 41 39 37 36
39 38 44 44 39 39 41 46 49 43 52 43 32 35 34 31 39 37 27 29 33 35 41 44 44 39 42 41 38 35 34 34 37 41 39 37 36 38 39 42 43 45 49 49
30 20 27 29 27 25 27 28 26 22 20 24 33 33 31 38 33 30 28 33 36 36 35 34 34 33 32 32 34 35 35 35 36 36 33 37 39 41 43 47 50 53 55 56
Wind_Direction_500mb
241 248 224 240 235 206 222 247 241 256 225 245 252 266 246 234 248 252 259 254 250 250 243 230 219 215 212 210 206 202 199 198 197 196 200 214 211 215 225 230 258 292 305 281
234 224 229 245 240 225 226 238 250 258 258 244 260 257 259 261 258 248 258 264 259 255 249 241 228 222 214 207 202 198 196 194 193 200 209 209 211 217 221 220 254 294 275 249
240 227 235 249 224 230 234 231 238 247 260 255 243 238 249 259 266 270 278 281 277 269 263 252 236 228 222 210 201 196 195 194 200 205 211 207 208 213 204 216 270 267 204 213
247 183 241 248 198 241 243 246 239 256 249 250 254 259 261 267 275 287 287 288 289 283 271 252 242 231 219 214 200 197 195 197 202 202 202 201 204 194 200 218 239 187 185 205
233 231 254 266 186 199 207 240 239 244 252 257 244 267 267 268 276 280 280 284 289 288 273 259 244 231 217 206 200 196 196 199 199 202 201 200 191 187 198 214 188 186 197 191
187 233 250 258 232 226 223 258 248 240 251 242 200 252 277 272 302 322 310 299 306 302 275 248 229 225 214 205 198 197 197 198 199 200 201 188 183 185 198 189 187 197 189 190
230 243 255 228 230 163 219 272 343 287 271 224 213 265 298 297 298 302 306 301 303 296 272 241 220 207 200 197 199 197 197 197 198 192 184 178 180 188 184 181 189 185 183 181
213 236 258 185 174 225 331 354 309 331 334 312 312 305 306 298 286 290 294 293 289 275 256 229 201 191 191 191 194 195 196 195 187 174 171 174 186 179 172 167 167 168 172 167
214 237 124 165 146 297 272 277 295 305 321 315 308 313 314 303 293 284 274 265 260 255 237 207 194 194 189 193 195 191 190 182 169 168 171 175 179 173 158 153 147 149 154 160
218 212 231 258 276 337 13 2 353 333 316 317 315 317 311 304 301 286 272 265 255 238 211 192 186 183 191 187 182 183 173 165 167 169 172 171 170 166 161 156 147 144 142 158
252 242 281 120 86 34 354 332 325 324 323 322 323 323 320 310 303 278 259 249 238 218 198 181 173 171 174 171 171 174 169 172 182 179 178 174 169 169 170 165 163 156 142 154
275 316 311 288 291 304 304 303 304 300 301 298 301 303 305 304 293 281 269 250 227 208 188 175 170 170 178 178 172 174 184 182 181 186 181 173 173 173 175 177 176 174 170 183
267 279 284 285 289 291 298 296 292 287 296 297 291 283 284 288 287 281 266 247 234 213 193 177 177 185 178 179 186 187 178 182 184 187 184 178 180 184 183 186 193 193 205 222
273 276 278 277 272 280 283 280 279 285 288 279 281 280 275 277 281 272 261 257 234 213 195 185 197 187 187 185 186 183 188 188 189 191 185 183 185 187 186 192 200 208 218 230
261 263 265 268 275 277 278 279 279 278 276 265 263 273 274 272 271 274 271 250 229 208 197 200 192 191 188 186 186 186 186 188 195 189 184 182 185 187 188 194 203 219 236 238
270 268 266 264 269 272 272 272 271 269 267 269 272 270 265 266 270 270 262 246 217 213 207 204 200 198 190 185 186 186 188 193 190 185 183 186 187 187 192 200 215 225 222 212
278 273 266 263 263 265 266 264 262 261 262 260 264 275 272 262 253 257 247 246 237 227 219 205 208 200 188 190 186 188 186 188 192 186 185 187 188 193 198 205 208 212 200 209
279 272 270 266 267 267 269 267 264 260 254 255 254 263 268 260 245 251 250 243 229 227 224 213 207 200 180 185 193 194 191 191 192 191 189 194 196 200 206 207 211 203 205 215
286 276 279 281 280 279 275 268 260 248 243 251 256 257 262 252 250 237 221 223 232 231 224 214 171 175 182 188 195 199 196 195 190 191 195 201 202 204 208 209 210 204 208 218
296 293 295 300 299 292 284 264 245 236 245 244 241 256 258 232 219 209 219 233 237 232 193 164 166 179 191 191 198 201 203 195 189 189 198 201 204 208 209 213 214 218 225 231
338 351 336 333 331 311 312 260 239 243 249 248 249 255 233 232 214 224 222 210 213 204 164 162 179 193 189 194 197 204 195 188 192 197 199 203 203 208 213 219 224 233 237 240
20 4 358 358 17 50 64 93 104 96 131 185 203 218 220 223 212 219 215 207 186 163 162 178 190 191 193 194 196 190 189 188 193 201 201 199 205 213 218 227 227 231 240 244
12 7 7 22 59 90 85 74 64 43 51 74 92 155 176 194 192 174 172 157 160 170 183 194 189 186 192 198 194 190 187 193 198 198 199 205 213 220 224 229 232 239 241 248
51 47 47 56 56 63 78 88 104 87 95 108 106 109 121 132 139 144 156 162 151 163 172 176 182 186 194 191 189 190 195 203 208 213 219 223 226 230 233 236 241 245 252 253
73 83 84 80 88 89 91 98 104 106 107 107 104 110 115 117 115 125 137 148 156 165 179 178 180 183 186 190 193 198 205 212 218 223 229 230 232 235 236 237 243 246 249 252
80 80 80 95 93 93 98 106 110 109 116 112 97 113 126 125 129 126 127 150 157 162 166 173 180 184 190 195 201 207 214 222 231 237 235 237 239 234 231 236 245 251 255 258
67 81 71 72 77 85 92 100 102 105 104 109 117 115 121 132 129 122 125 138 145 155 162 170 178 187 197 206 216 223 229 235 240 238 235 236 239 241 244 248 254 258 259 258
Wind_Speed_850mb
15 15 11 16 19 18 24 29 23 29 21 26 24 13 19 19 17 21 31 40 54 61 61 57 61 71 89 80 74 69 69 67 63 53 46 42 42 34 28 22 13 15 17 11
16 19 22 26 25 18 24 22 21 27 24 25 20 19 23 29 27 33 40 47 53 58 66 72 72 75 80 88 80 74 72 67 59 55 47 47 41 36 28 16 9 10 10 5
30 18 19 26 28 34 28 22 24 31 32 9 15 22 26 28 27 34 40 42 48 58 64 67 66 72 77 87 85 78 73 70 65 63 58 52 43 36 25 15 10 12 8 7
22 11 33 18 8 19 34 35 31 29 19 27 30 22 18 24 28 36 40 37 37 36 38 45 58 64 64 74 85 82 77 74 73 68 58 51 43 33 20 13 11 12 12 9
14 24 33 12 10 16 21 31 27 24 27 31 19 11 23 31 33 33 39 36 33 29 30 35 44 53 59 60 86 83 81 80 73 64 58 51 42 29 22 15 15 19 14 11
9 14 34 12 31 35 8 29 26 34 28 24 13 15 17 18 10 13 14 15 17 17 17 23 32 44 49 58 84 83 83 80 72 63 58 50 38 28 20 17 20 18 16 10
26 23 20 11 8 14 22 21 7 9 17 12 12 17 10 17 20 13 13 15 17 17 15 17 24 36 51 69 82 81 75 72 68 62 53 43 35 25 21 23 22 22 17 13
13 16 26 13 9 18 4 3 3 7 8 12 18 27 27 27 21 23 23 21 19 19 17 19 29 45 59 69 74 72 73 70 67 61 52 40 29 26 27 28 26 22 19 16
16 13 6 9 3 7 7 10 10 19 14 18 20 22 26 28 27 27 24 23 22 19 17 23 36 48 60 65 62 64 65 71 67 57 44 31 28 35 40 33 28 24 22 17
10 16 14 15 10 5 5 8 11 14 18 19 22 24 30 32 29 25 22 20 17 18 23 35 46 48 48 54 60 64 64 62 57 44 37 33 36 44 43 37 30 26 23 17
8 1 4 6 8 13 16 23 27 29 27 27 26 29 30 30 27 25 23 19 20 23 32 43 50 47 47 52 54 58 63 53 48 43 34 37 46 46 38 31 26 23 21 15
4 19 29 38 37 35 37 39 33 28 28 33 34 41 36 32 26 22 22 22 25 32 47 60 61 58 56 54 57 54 56 63 56 47 41 49 52 44 37 30 26 21 16 12
21 41 44 49 61 61 51 52 41 31 34 46 49 47 46 42 37 29 27 28 31 43 59 65 57 44 62 66 59 59 68 64 57 47 48 58 55 46 37 31 27 20 15 16
64 54 63 62 57 60 54 50 58 60 52 49 46 41 40 40 41 40 38 31 35 50 67 66 51 63 64 56 60 66 61 56 51 46 51 58 55 39 31 29 26 22 21 17
69 69 67 74 79 78 69 66 63 58 48 46 41 40 38 40 38 37 36 33 39 56 76 57 63 65 60 60 67 68 58 49 47 48 51 48 42 35 32 30 26 23 24 22
55 57 61 62 64 68 65 65 65 61 55 53 60 58 53 55 52 43 34 38 46 65 85 69 67 67 66 68 70 64 53 45 54 53 50 48 42 37 34 29 26 24 22 19
52 57 61 65 64 67 68 69 69 67 61 53 50 45 42 43 42 45 39 37 44 56 80 77 68 66 65 67 66 60 56 51 60 54 46 44 42 37 31 26 23 22 24 19
47 54 54 55 61 63 66 65 64 59 56 50 46 47 43 37 40 42 42 40 44 51 74 75 62 64 63 66 61 59 53 54 65 54 48 45 42 37 36 29 23 26 23 23
43 47 48 50 53 56 58 58 57 52 46 41 38 36 33 33 32 31 36 47 43 51 64 58 58 59 62 67 64 58 53 55 57 52 52 48 50 44 39 33 27 26 24 21
34 30 34 39 44 40 36 29 28 32 32 30 26 21 20 23 28 36 40 38 40 49 58 68 64 64 63 66 60 54 53 59 56 50 57 54 47 44 43 35 30 28 26 25
16 21 23 22 18 9 5 6 13 20 18 21 21 20 19 19 28 30 30 47 52 54 68 67 63 63 64 64 59 52 58 55 52 48 51 51 44 39 37 35 33 32 30 29
9 20 23 19 14 14 12 9 8 5 7 10 12 17 19 21 24 28 40 51 52 78 69 68 56 61 63 59 55 57 61 50 46 45 45 47 41 37 36 34 34 33 33 34
12 13 17 14 10 11 11 14 15 18 8 6 2 6 11 19 22 25 36 54 62 68 65 51 55 55 49 52 59 59 52 51 44 39 39 41 40 38 37 34 33 32 30 34
28 26 22 14 12 16 17 12 12 16 21 30 36 38 33 34 32 25 37 49 43 43 42 43 50 46 43 53 50 48 49 46 41 37 36 42 41 41 41 39 39 39 38 40
39 41 42 36 41 44 41 42 57 64 52 52 48 43 53 55 51 46 40 42 41 40 46 46 45 42 49 48 43 39 39 39 39 38 36 37 40 44 45 44 41 39 37 36
39 38 44 44 39 39 41 46 49 43 52 43 32 35 34 31 39 37 27 29 33 35 41 44 44 39 42 41 38 35 34 34 37 41 39 37 36 38 39 42 43 45 49 49
30 20 27 29 27 25 27 28 26 22 20 24 33 33 31 38 33 30 28 33 36 36 35 34 34 33 32 32 34 35 35 35 36 36 33 37 39 41 43 47 50 53 55 56
Wind_Direction_850mb
241 248 224 240 235 206 222 247 241 256 225 245 252 266 246 234 248 252 259 254 250 250 243 230 219 215 212 210 206 202 199 198 197 196 200 214 211 215 225 230 258 292 305 281
234 224 229 245 240 225 226 238 250 258 258 244 260 257 259 261 258 248 258 264 259 255 249 241 228 222 214 207 202 198 196 194 193 200 209 209 211 217 221 220 254 294 275 249
240 227 235 249 224 230 234 231 238 247 260 255 243 238 249 259 266 270 278 281 277 269 263 252 236 228 222 210 201 196 195 194 200 205 211 207 208 213 204 216 270 267 204 213
247 183 241 248 198 241 243 246 239 256 249 250 254 259 261 267 275 287 287 288 289 283 271 252 242 231 219 214 200 197 195 197 202 202 202 201 204 194 200 218 239 187 185 205
233 231 254 266 186 199 207 240 239 244 252 257 244 267 267 268 276 280 280 284 289 288 273 259 244 231 217 206 200 196 196 199 199 202 201 200 191 187 198 214 188 186 197 191
187 233 250 258 232 226 223 258 248 240 251 242 200 252 277 272 302 322 310 299 306 302 275 248 229 225 214 205 198 197 197 198 199 200 201 188 183 185 198 189 187 197 189 190
230 243 255 228 230 163 219 272 343 287 271 224 213 265 298 297 298 302 306 301 303 296 272 241 220 207 200 197 199 197 197 197 198 192 184 178 180 188 184 181 189 185 183 181
213 236 258 185 174 225 331 354 309 331 334 312 312 305 306 298 286 290 294 293 289 275 256 229 201 191 191 191 194 195 196 195 187 174 171 174 186 179 172 167 167 168 172 167
214 237 124 165 146 297 272 277 295 305 321 315 308 313 314 303 293 284 274 265 260 255 237 207 194 194 189 193 195 191 190 182 169 168 171 175 179 173 158 153 147 149 154 160
218 212 231 258 276 337 13 2 353 333 316 317 315 317 311 304 301 286 272 265 255 238 211 192 186 183 191 187 182 183 173 165 167 169 172 171 170 166 161 156 147 144 142 158
252 242 281 120 86 34 354 332 325 324 323 322 323 323 320 310 303 278 259 249 238 218 198 181 173 171 174 171 171 174 169 172 182 179 178 174 169 169 170 165 163 156 142 154
275 316 311 288 291 304 304 303 304 300 301 298 301 303 305 304 293 281 269 250 227 208 188 175 170 170 178 178 172 174 184 182 181 186 181 173 173 173 175 177 176 174 170 183
267 279 284 285 289 291 298 296 292 287 296 297 291 283 284 288 287 281 266 247 234 213 193 177 177 185 178 179 186 187 178 182 184 187 184 178 180 184 183 186 193 193 205 222
273 276 278 277 272 280 283 280 279 285 288 279 281 280 275 277 281 272 261 257 234 213 195 185 197 187 187 185 186 183 188 188 189 191 185 183 185 187 186 192 200 208 218 230
261 263 265 268 275 277 278 279 279 278 276 265 263 273 274 272 271 274 271 250 229 208 197 200 192 191 188 186 186 186 186 188 195 189 184 182 185 187 188 194 203 219 236 238
270 268 266 264 269 272 272 272 271 269 267 269 272 270 265 266 270 270 262 246 217 213 207 204 200 198 190 185 186 186 188 193 190 185 183 186 187 187 192 200 215 225 222 212
278 273 266 263 263 265 266 264 262 261 262 260 264 275 272 262 253 257 247 246 237 227 219 205 208 200 188 190 186 188 186 188 192 186 185 187 188 193 198 205 208 212 200 209
279 272 270 266 267 267 269 267 264 260 254 255 254 263 268 260 245 251 250 243 229 227 224 213 207 200 180 185 193 194 191 191 192 191 189 194 196 200 206 207 211 203 205 215
286 276 279 281 280 279 275 268 260 248 243 251 256 257 262 252 250 237 221 223 232 231 224 214 171 175 182 188 195 199 196 195 190 191 195 201 202 204 208 209 210 204 208 218
296 293 295 300 299 292 284 264 245 236 245 244 241 256 258 232 219 209 219 233 237 232 193 164 166 179 191 191 198 201 203 195 189 189 198 201 204 208 209 213 214 218 225 231
338 351 336 333 331 311 312 260 239 243 249 248 249 255 233 232 214 224 222 210 213 204 164 162 179 193 189 194 197 204 195 188 192 197 199 203 203 208 213 219 224 233 237 240
20 4 358 358 17 50 64 93 104 96 131 185 203 218 220 223 212 219 215 207 186 163 162 178 190 191 193 194 196 190 189 188 193 201 201 199 205 213 218 227 227 231 240 244
12 7 7 22 59 90 85 74 64 43 51 74 92 155 176 194 192 174 172 157 160 170 183 194 189 186 192 198 194 190 187 193 198 198 199 205 213 220 224 229 232 239 241 248
51 47 47 56 56 63 78 88 104 87 95 108 106 109 121 132 139 144 156 162 151 163 172 176 182 186 194 191 189 190 195 203 208 213 219 223 226 230 233 236 241 245 252 253
73 83 84 80 88 89 91 98 104 106 107 107 104 110 115 117 115 125 137 148 156 165 179 178 180 183 186 190 193 198 205 212 218 223 229 230 232 235 236 237 243 246 249 252
80 80 80 95 93 93 98 106 110 109 116 112 97 113 126 125 129 126 127 150 157 162 166 173 180 184 190 195 201 207 214 222 231 237 235 237 239 234 231 236 245 251 255 258
67 81 71 72 77 85 92 100 102 105 104 109 117 115 121 132 129 122 125 138 145 155 162 170 178 187 197 206 216 223 229 235 240 238 235 236 239 241 244 248 254 258 259 258